Location: Bazinghen
(50.8246°N, 1.6616°E)
Time: 23:06:52
(UTC+00:00)

Cosmos 1908 - Pass Details

Date: 09 April 2020
Orbit: 511 x 531 km, 82.5° (Epoch: 03 June)

Event Time Altitude Azimuth Distance (km) Brightness Sun altitude
Rises 19:06:26 0° 172° (S) 2,640 6.5 -4.9°
Reaches altitude 10° 19:08:36 10° 166° (SSE) 1,760 5.6 -5.2°
Maximum altitude 19:12:17 44° 94° (E) 737 3.6 -5.7°
Drops below altitude 10° 19:16:02 10° 22° (NNE) 1,786 5.9 -6.3°
Sets 19:18:15 0° 16° (NNE) 2,684 6.9 -6.6°
